| time (UTC) | temp F | wind direction | speed MPH | gust MPH | rain 1hr in | rain 24hr in | rain mn in | humidity % | barometer mb |
| 20260904032029 | 74 | 135 | 8.0 | 12.0 | 0.00 | 0.00 | 0.00 | 24 | 1017.0 |
| 20260904031529 | 74 | 95 | 3.0 | 4.0 | 0.00 | 0.00 | 0.00 | 25 | 1016.0 |
| 20260904031029 | 74 | 133 | 3.0 | 4.0 | 0.00 | 0.00 | 0.00 | 24 | 1016.0 |
| 20260904030529 | 75 | 118 | 3.0 | 3.0 | 0.00 | 0.00 | 0.00 | 24 | 1016.0 |
| 20260904030029 | 75 | 122 | 4.0 | 6.0 | 0.00 | 0.00 | 0.00 | 23 | 1016.0 |
| 20260904025530 | 76 | 65 | 5.0 | 6.0 | 0.00 | 0.00 | 0.00 | 21 | 1016.0 |
| 20260904025032 | 76 | 130 | 5.0 | 6.0 | 0.00 | 0.00 | 0.00 | 18 | 1016.0 |
| 20260904024530 | 77 | 138 | 4.0 | 4.0 | 0.00 | 0.00 | 0.00 | 17 | 1016.0 |
| 20260904024030 | 77 | 143 | 7.0 | 9.0 | 0.00 | 0.00 | 0.00 | 16 | 1016.0 |
| 20260904023529 | 77 | 139 | 4.0 | 8.0 | 0.00 | 0.00 | 0.00 | 15 | 1016.0 |
| 20260904023030 | 77 | 162 | 6.0 | 8.0 | 0.00 | 0.00 | 0.00 | 15 | 1016.0 |
| 20260904022529 | 77 | 158 | 2.0 | 5.0 | 0.00 | 0.00 | 0.00 | 15 | 1016.0 |
| 20260904022030 | 77 | 166 | 4.0 | 9.0 | 0.00 | 0.00 | 0.00 | 15 | 1016.0 |
| 20260904021532 | 77 | 19 | 2.0 | 4.0 | 0.00 | 0.00 | 0.00 | 15 | 1016.0 |
| 20260904021030 | 77 | 147 | 6.0 | 7.0 | 0.00 | 0.00 | 0.00 | 14 | 1016.0 |
| 20260904020530 | 77 | 148 | 5.0 | 6.0 | 0.00 | 0.00 | 0.00 | 15 | 1016.0 |
| 20260904020030 | 78 | 144 | 0.0 | 1.0 | 0.00 | 0.00 | 0.00 | 15 | 1016.0 |
| 20260904015529 | 78 | 339 | 0.0 | 0.0 | 0.00 | 0.00 | 0.00 | 15 | 1016.0 |
| 20260904015029 | 79 | 3 | 4.0 | 9.0 | 0.00 | 0.00 | 0.00 | 15 | 1016.0 |
| 20260904014529 | 79 | 360 | 0.0 | 0.0 | 0.00 | 0.00 | 0.00 | 15 | 1016.0 |
| 20260904014029 | 80 | 104 | 0.0 | 0.0 | 0.00 | 0.00 | 0.00 | 14 | 1016.0 |
| 20260904013529 | 80 | 344 | 4.0 | 5.0 | 0.00 | 0.00 | 0.00 | 14 | 1016.0 |
| 20260904013029 | 81 | 57 | 2.0 | 3.0 | 0.00 | 0.00 | 0.00 | 15 | 1016.0 |
| 20260904012529 | 81 | 47 | 0.0 | 1.0 | 0.00 | 0.00 | 0.00 | 15 | 1016.0 |
| 20260904012032 | 81 | 168 | 1.0 | 3.0 | 0.00 | 0.00 | 0.00 | 16 | 1016.0 |
| 20260904011529 | 81 | 180 | 2.0 | 6.0 | 0.00 | 0.00 | 0.00 | 16 | 1016.0 |
| 20260904011031 | 82 | 29 | 2.0 | 4.0 | 0.00 | 0.00 | 0.00 | 16 | 1016.0 |
| 20260904010529 | 82 | 25 | 5.0 | 7.0 | 0.00 | 0.00 | 0.00 | 16 | 1016.0 |
| 20260904010030 | 82 | 24 | 0.0 | 0.0 | 0.00 | 0.00 | 0.00 | 16 | 1016.0 |
| 20260904005529 | 82 | 14 | 3.0 | 4.0 | 0.00 | 0.00 | 0.00 | 16 | 1016.0 |
| 20260904005030 | 82 | 146 | 1.0 | 4.0 | 0.00 | 0.00 | 0.00 | 15 | 1016.0 |
| 20260904004529 | 82 | 11 | 0.0 | 1.0 | 0.00 | 0.00 | 0.00 | 14 | 1016.0 |
| 20260904004031 | 82 | 131 | 4.0 | 7.0 | 0.00 | 0.00 | 0.00 | 13 | 1016.0 |
| 20260904003530 | 83 | 170 | 3.0 | 6.0 | 0.00 | 0.00 | 0.00 | 13 | 1016.0 |
| 20260904003029 | 83 | 167 | 3.0 | 7.0 | 0.00 | 0.00 | 0.00 | 13 | 1016.0 |
| 20260904002529 | 83 | 153 | 7.0 | 11.0 | 0.00 | 0.00 | 0.00 | 12 | 1016.0 |
| 20260904002029 | 83 | 146 | 10.0 | 22.0 | 0.00 | 0.00 | 0.00 | 12 | 1016.0 |
| 20260904001530 | 83 | 159 | 11.0 | 15.0 | 0.00 | 0.00 | 0.00 | 11 | 1016.0 |
| 20260904001030 | 83 | 159 | 11.0 | 15.0 | 0.00 | 0.00 | 0.00 | 11 | 1016.0 |
| 20260904000530 | 83 | 142 | 4.0 | 11.0 | 0.00 | 0.00 | 0.00 | 12 | 1016.0 |
| 20260904000030 | 83 | 145 | 6.0 | 10.0 | 0.00 | 0.00 | 0.00 | 12 | 1016.0 |
| 20260903235530 | 83 | 145 | 7.0 | 9.0 | 0.00 | 0.00 | 0.00 | 11 | 1016.0 |
| 20260903235031 | 83 | 144 | 9.0 | 12.0 | 0.00 | 0.00 | 0.00 | 11 | 1016.0 |
| 20260903234530 | 83 | 108 | 4.0 | 7.0 | 0.00 | 0.00 | 0.00 | 13 | 1016.0 |
| 20260903234029 | 83 | 163 | 8.0 | 15.0 | 0.00 | 0.00 | 0.00 | 12 | 1016.0 |
| 20260903233529 | 83 | 155 | 15.0 | 18.0 | 0.00 | 0.00 | 0.00 | 10 | 1016.0 |
| 20260903233031 | 83 | 157 | 9.0 | 14.0 | 0.00 | 0.00 | 0.00 | 11 | 1016.0 |
| 20260903232530 | 83 | 146 | 15.0 | 17.0 | 0.00 | 0.00 | 0.00 | 10 | 1016.0 |
| 20260903232033 | 83 | 143 | 11.0 | 16.0 | 0.00 | 0.00 | 0.00 | 11 | 1017.0 |
| 20260903231531 | 83 | 134 | 9.0 | 12.0 | 0.00 | 0.00 | 0.00 | 11 | 1017.0 |
| 20260903231030 | 83 | 143 | 9.0 | 17.0 | 0.00 | 0.00 | 0.00 | 11 | 1017.0 |
| 20260903230530 | 83 | 143 | 13.0 | 18.0 | 0.00 | 0.00 | 0.00 | 10 | 1017.0 |
| 20260903230029 | 83 | 164 | 9.0 | 14.0 | 0.00 | 0.00 | 0.00 | 11 | 1017.0 |
| 20260903225530 | 82 | 157 | 8.0 | 12.0 | 0.00 | 0.00 | 0.00 | 12 | 1017.0 |
| 20260903225030 | 82 | 146 | 12.0 | 16.0 | 0.00 | 0.00 | 0.00 | 11 | 1017.0 |
| 20260903224529 | 82 | 134 | 8.0 | 16.0 | 0.00 | 0.00 | 0.00 | 12 | 1017.0 |
| 20260903224030 | 82 | 146 | 13.0 | 19.0 | 0.00 | 0.00 | 0.00 | 11 | 1017.0 |
| 20260903223529 | 82 | 143 | 17.0 | 23.0 | 0.00 | 0.00 | 0.00 | 10 | 1017.0 |
| 20260903223029 | 82 | 138 | 12.0 | 23.0 | 0.00 | 0.00 | 0.00 | 11 | 1017.0 |
| 20260903222530 | 82 | 149 | 9.0 | 14.0 | 0.00 | 0.00 | 0.00 | 12 | 1017.0 |
| 20260903222031 | 82 | 144 | 13.0 | 25.0 | 0.00 | 0.00 | 0.00 | 11 | 1017.0 |
| 20260903221530 | 82 | 140 | 13.0 | 17.0 | 0.00 | 0.00 | 0.00 | 11 | 1017.0 |
| 20260903221030 | 82 | 144 | 17.0 | 24.0 | 0.00 | 0.00 | 0.00 | 11 | 1017.0 |
| 20260903220530 | 82 | 146 | 13.0 | 16.0 | 0.00 | 0.00 | 0.00 | 11 | 1017.0 |
| 20260903220029 | 82 | 161 | 9.0 | 15.0 | 0.00 | 0.00 | 0.00 | 12 | 1017.0 |
| 20260903215530 | 81 | 135 | 11.0 | 17.0 | 0.00 | 0.00 | 0.00 | 13 | 1017.0 |
| 20260903215029 | 81 | 129 | 13.0 | 20.0 | 0.00 | 0.00 | 0.00 | 11 | 1017.0 |
| 20260903214531 | 81 | 142 | 9.0 | 14.0 | 0.00 | 0.00 | 0.00 | 12 | 1017.0 |
| 20260903214029 | 81 | 143 | 17.0 | 21.0 | 0.00 | 0.00 | 0.00 | 11 | 1017.0 |
| 20260903213530 | 81 | 140 | 11.0 | 17.0 | 0.00 | 0.00 | 0.00 | 12 | 1017.0 |
| 20260903213030 | 81 | 160 | 10.0 | 16.0 | 0.00 | 0.00 | 0.00 | 13 | 1017.0 |
| 20260903212529 | 81 | 142 | 5.0 | 11.0 | 0.00 | 0.00 | 0.00 | 14 | 1018.0 |
| 20260903212029 | 80 | 143 | 11.0 | 20.0 | 0.00 | 0.00 | 0.00 | 13 | 1018.0 |
| 20260903211529 | 80 | 147 | 13.0 | 18.0 | 0.00 | 0.00 | 0.00 | 14 | 1018.0 |
| 20260903211030 | 80 | 135 | 13.0 | 20.0 | 0.00 | 0.00 | 0.00 | 14 | 1018.0 |
| 20260903210530 | 80 | 148 | 13.0 | 19.0 | 0.00 | 0.00 | 0.00 | 14 | 1018.0 |
| 20260903210029 | 80 | 153 | 10.0 | 23.0 | 0.00 | 0.00 | 0.00 | 14 | 1018.0 |
| 20260903205530 | 80 | 166 | 12.0 | 22.0 | 0.00 | 0.00 | 0.00 | 14 | 1018.0 |
| 20260903205029 | 80 | 139 | 7.0 | 17.0 | 0.00 | 0.00 | 0.00 | 14 | 1018.0 |
| 20260903204530 | 80 | 145 | 12.0 | 18.0 | 0.00 | 0.00 | 0.00 | 13 | 1018.0 |
| 20260903204030 | 80 | 146 | 17.0 | 26.0 | 0.00 | 0.00 | 0.00 | 13 | 1018.0 |
| 20260903203529 | 80 | 139 | 8.0 | 12.0 | 0.00 | 0.00 | 0.00 | 16 | 1018.0 |
| 20260903203029 | 80 | 139 | 9.0 | 18.0 | 0.00 | 0.00 | 0.00 | 14 | 1018.0 |
| 20260903202530 | 80 | 148 | 9.0 | 15.0 | 0.00 | 0.00 | 0.00 | 15 | 1018.0 |
| 20260903202031 | 80 | 167 | 10.0 | 21.0 | 0.00 | 0.00 | 0.00 | 14 | 1018.0 |
| 20260903201529 | 80 | 135 | 9.0 | 21.0 | 0.00 | 0.00 | 0.00 | 14 | 1018.0 |
| 20260903201029 | 80 | 161 | 13.0 | 22.0 | 0.00 | 0.00 | 0.00 | 14 | 1018.0 |
| 20260903200531 | 80 | 141 | 12.0 | 17.0 | 0.00 | 0.00 | 0.00 | 14 | 1018.0 |
| 20260903200031 | 79 | 143 | 8.0 | 17.0 | 0.00 | 0.00 | 0.00 | 14 | 1018.0 |
| 20260903195530 | 79 | 160 | 13.0 | 20.0 | 0.00 | 0.00 | 0.00 | 13 | 1018.0 |
| 20260903195030 | 79 | 139 | 12.0 | 19.0 | 0.00 | 0.00 | 0.00 | 15 | 1019.0 |
| 20260903194531 | 79 | 144 | 12.0 | 26.0 | 0.00 | 0.00 | 0.00 | 15 | 1019.0 |
| 20260903194029 | 79 | 142 | 10.0 | 16.0 | 0.00 | 0.00 | 0.00 | 15 | 1019.0 |
| 20260903193530 | 78 | 146 | 5.0 | 16.0 | 0.00 | 0.00 | 0.00 | 16 | 1019.0 |
| 20260903193030 | 78 | 153 | 12.0 | 22.0 | 0.00 | 0.00 | 0.00 | 14 | 1019.0 |
| 20260903192529 | 78 | 144 | 10.0 | 17.0 | 0.00 | 0.00 | 0.00 | 15 | 1019.0 |
| 20260903192030 | 78 | 151 | 13.0 | 20.0 | 0.00 | 0.00 | 0.00 | 15 | 1019.0 |
| 20260903191529 | 78 | 141 | 11.0 | 17.0 | 0.00 | 0.00 | 0.00 | 16 | 1019.0 |
| 20260903191029 | 77 | 133 | 8.0 | 15.0 | 0.00 | 0.00 | 0.00 | 16 | 1019.0 |
| 20260903190530 | 77 | 141 | 17.0 | 25.0 | 0.00 | 0.00 | 0.00 | 14 | 1019.0 |
| 20260903190030 | 77 | 152 | 15.0 | 19.0 | 0.00 | 0.00 | 0.00 | 16 | 1019.0 |
| 20260903185530 | 77 | 140 | 9.0 | 13.0 | 0.00 | 0.00 | 0.00 | 16 | 1019.0 |
| 20260903185029 | 77 | 148 | 10.0 | 19.0 | 0.00 | 0.00 | 0.00 | 16 | 1019.0 |
| 20260903184530 | 77 | 122 | 9.0 | 14.0 | 0.00 | 0.00 | 0.00 | 16 | 1019.0 |
| 20260903184030 | 76 | 141 | 8.0 | 16.0 | 0.00 | 0.00 | 0.00 | 17 | 1019.0 |
| 20260903183530 | 77 | 149 | 17.0 | 24.0 | 0.00 | 0.00 | 0.00 | 16 | 1019.0 |
| 20260903183030 | 77 | 147 | 12.0 | 18.0 | 0.00 | 0.00 | 0.00 | 16 | 1020.0 |
| 20260903182530 | 77 | 162 | 7.0 | 13.0 | 0.00 | 0.00 | 0.00 | 18 | 1020.0 |
| 20260903182030 | 76 | 153 | 10.0 | 15.0 | 0.00 | 0.00 | 0.00 | 17 | 1020.0 |
| 20260903181530 | 76 | 143 | 9.0 | 15.0 | 0.00 | 0.00 | 0.00 | 16 | 1020.0 |
| 20260903181029 | 76 | 149 | 8.0 | 15.0 | 0.00 | 0.00 | 0.00 | 17 | 1020.0 |
| 20260903180531 | 76 | 143 | 9.0 | 16.0 | 0.00 | 0.00 | 0.00 | 17 | 1020.0 |
| 20260903180030 | 76 | 148 | 9.0 | 13.0 | 0.00 | 0.00 | 0.00 | 17 | 1020.0 |
| 20260903175529 | 76 | 148 | 9.0 | 13.0 | 0.00 | 0.00 | 0.00 | 17 | 1020.0 |
| 20260903175030 | 75 | 148 | 9.0 | 13.0 | 0.00 | 0.00 | 0.00 | 17 | 1020.0 |
| 20260903174529 | 75 | 150 | 14.0 | 19.0 | 0.00 | 0.00 | 0.00 | 17 | 1020.0 |
| 20260903174030 | 75 | 136 | 13.0 | 21.0 | 0.00 | 0.00 | 0.00 | 17 | 1020.0 |
| 20260903173531 | 75 | 146 | 11.0 | 16.0 | 0.00 | 0.00 | 0.00 | 17 | 1020.0 |
| 20260903173030 | 76 | 148 | 9.0 | 13.0 | 0.00 | 0.00 | 0.00 | 17 | 1020.0 |
| 20260903172530 | 75 | 92 | 1.0 | 4.0 | 0.00 | 0.00 | 0.00 | 18 | 1020.0 |
| 20260903172030 | 75 | 156 | 10.0 | 16.0 | 0.00 | 0.00 | 0.00 | 17 | 1020.0 |
| 20260903171529 | 74 | 142 | 13.0 | 22.0 | 0.00 | 0.00 | 0.00 | 16 | 1020.0 |
| 20260903171029 | 74 | 139 | 12.0 | 22.0 | 0.00 | 0.00 | 0.00 | 17 | 1020.0 |
| 20260903170529 | 74 | 169 | 9.0 | 13.0 | 0.00 | 0.00 | 0.00 | 18 | 1020.0 |
| 20260903170030 | 74 | 153 | 12.0 | 14.0 | 0.00 | 0.00 | 0.00 | 16 | 1020.0 |
| 20260903165531 | 74 | 153 | 12.0 | 19.0 | 0.00 | 0.00 | 0.00 | 16 | 1020.0 |
| 20260903165029 | 74 | 144 | 12.0 | 17.0 | 0.00 | 0.00 | 0.00 | 16 | 1020.0 |
| 20260903164530 | 74 | 141 | 12.0 | 17.0 | 0.00 | 0.00 | 0.00 | 17 | 1020.0 |
| 20260903164030 | 73 | 141 | 13.0 | 17.0 | 0.00 | 0.00 | 0.00 | 16 | 1020.0 |
| 20260903163531 | 73 | 149 | 14.0 | 18.0 | 0.00 | 0.00 | 0.00 | 16 | 1020.0 |
| 20260903163031 | 73 | 151 | 8.0 | 17.0 | 0.00 | 0.00 | 0.00 | 17 | 1020.0 |
| 20260903162530 | 73 | 156 | 12.0 | 20.0 | 0.00 | 0.00 | 0.00 | 17 | 1020.0 |
| 20260903162030 | 73 | 159 | 11.0 | 19.0 | 0.00 | 0.00 | 0.00 | 16 | 1020.0 |
| 20260903161530 | 73 | 152 | 9.0 | 11.0 | 0.00 | 0.00 | 0.00 | 18 | 1020.0 |
| 20260903161029 | 73 | 158 | 8.0 | 12.0 | 0.00 | 0.00 | 0.00 | 18 | 1020.0 |
| 20260903160531 | 73 | 165 | 7.0 | 12.0 | 0.00 | 0.00 | 0.00 | 18 | 1020.0 |
| 20260903160029 | 72 | 160 | 7.0 | 11.0 | 0.00 | 0.00 | 0.00 | 18 | 1020.0 |
| 20260903155530 | 72 | 148 | 12.0 | 15.0 | 0.00 | 0.00 | 0.00 | 17 | 1020.0 |
| 20260903155030 | 72 | 147 | 13.0 | 16.0 | 0.00 | 0.00 | 0.00 | 17 | 1020.0 |
| 20260903154531 | 72 | 143 | 12.0 | 15.0 | 0.00 | 0.00 | 0.00 | 17 | 1020.0 |
| 20260903154029 | 72 | 136 | 15.0 | 20.0 | 0.00 | 0.00 | 0.00 | 17 | 1020.0 |
| 20260903153530 | 72 | 144 | 8.0 | 16.0 | 0.00 | 0.00 | 0.00 | 18 | 1020.0 |
| 20260903153030 | 72 | 144 | 11.0 | 17.0 | 0.00 | 0.00 | 0.00 | 16 | 1020.0 |
| 20260903152529 | 71 | 157 | 8.0 | 12.0 | 0.00 | 0.00 | 0.00 | 19 | 1020.0 |
| 20260903152029 | 71 | 151 | 9.0 | 15.0 | 0.00 | 0.00 | 0.00 | 18 | 1020.0 |
| 20260903151530 | 71 | 148 | 0.0 | 0.0 | 0.00 | 0.00 | 0.00 | 20 | 1020.0 |
| 20260903151030 | 71 | 153 | 9.0 | 14.0 | 0.00 | 0.00 | 0.00 | 18 | 1020.0 |
| 20260903150530 | 71 | 147 | 6.0 | 10.0 | 0.00 | 0.00 | 0.00 | 19 | 1020.0 |
| 20260903150030 | 71 | 182 | 4.0 | 6.0 | 0.00 | 0.00 | 0.00 | 21 | 1020.0 |
| 20260903145529 | 70 | 360 | 0.0 | 0.0 | 0.00 | 0.00 | 0.00 | 26 | 1020.0 |
| 20260903145031 | 70 | 183 | 5.0 | 7.0 | 0.00 | 0.00 | 0.00 | 25 | 1020.0 |
| 20260903144531 | 69 | 360 | 0.0 | 0.0 | 0.00 | 0.00 | 0.00 | 24 | 1020.0 |
| 20260903144029 | 69 | 75 | 1.0 | 2.0 | 0.00 | 0.00 | 0.00 | 26 | 1020.0 |
| 20260903143530 | 68 | 355 | 3.0 | 4.0 | 0.00 | 0.00 | 0.00 | 26 | 1020.0 |
| 20260903143029 | 67 | 101 | 3.0 | 4.0 | 0.00 | 0.00 | 0.00 | 26 | 1020.0 |
| 20260903142530 | 67 | 191 | 3.0 | 3.0 | 0.00 | 0.00 | 0.00 | 26 | 1020.0 |
| 20260903142029 | 67 | 1 | 5.0 | 7.0 | 0.00 | 0.00 | 0.00 | 26 | 1020.0 |
| 20260903141530 | 66 | 340 | 1.0 | 3.0 | 0.00 | 0.00 | 0.00 | 23 | 1020.0 |
| 20260903141029 | 65 | 360 | 4.0 | 5.0 | 0.00 | 0.00 | 0.00 | 27 | 1020.0 |
| 20260903140530 | 64 | 352 | 3.0 | 4.0 | 0.00 | 0.00 | 0.00 | 28 | 1020.0 |
| 20260903140029 | 63 | 17 | 1.0 | 4.0 | 0.00 | 0.00 | 0.00 | 32 | 1020.0 |
| 20260903135531 | 63 | 122 | 2.0 | 4.0 | 0.00 | 0.00 | 0.00 | 31 | 1020.0 |
| 20260903135030 | 62 | 360 | 0.0 | 0.0 | 0.00 | 0.00 | 0.00 | 36 | 1020.0 |
| 20260903134531 | 62 | 360 | 0.0 | 0.0 | 0.00 | 0.00 | 0.00 | 36 | 1020.0 |
| 20260903134030 | 62 | 360 | 0.0 | 0.0 | 0.00 | 0.00 | 0.00 | 33 | 1020.0 |
| 20260903133530 | 61 | 71 | 1.0 | 3.0 | 0.00 | 0.00 | 0.00 | 30 | 1020.0 |
| 20260903133032 | 60 | 66 | 1.0 | 3.0 | 0.00 | 0.00 | 0.00 | 28 | 1020.0 |
| 20260903132530 | 59 | 93 | 4.0 | 6.0 | 0.00 | 0.00 | 0.00 | 27 | 1020.0 |
| 20260903132031 | 58 | 23 | 3.0 | 4.0 | 0.00 | 0.00 | 0.00 | 32 | 1020.0 |
| 20260903131530 | 58 | 72 | 3.0 | 4.0 | 0.00 | 0.00 | 0.00 | 30 | 1020.0 |
| 20260903131033 | 56 | 130 | 4.0 | 4.0 | 0.00 | 0.00 | 0.00 | 33 | 1020.0 |
| 20260903130529 | 56 | 101 | 0.0 | 0.0 | 0.00 | 0.00 | 0.00 | 41 | 1020.0 |
| 20260903130031 | 56 | 92 | 2.0 | 4.0 | 0.00 | 0.00 | 0.00 | 42 | 1020.0 |
| 20260903125530 | 56 | 360 | 0.0 | 0.0 | 0.00 | 0.00 | 0.00 | 42 | 1020.0 |
| 20260903125029 | 55 | 54 | 3.0 | 4.0 | 0.00 | 0.00 | 0.00 | 38 | 1019.0 |
| 20260903124529 | 55 | 360 | 0.0 | 0.0 | 0.00 | 0.00 | 0.00 | 39 | 1019.0 |
| 20260903124030 | 55 | 360 | 0.0 | 0.0 | 0.00 | 0.00 | 0.00 | 43 | 1019.0 |
| 20260903123529 | 55 | 360 | 0.0 | 0.0 | 0.00 | 0.00 | 0.00 | 42 | 1020.0 |
| 20260903123029 | 55 | 75 | 0.0 | 2.0 | 0.00 | 0.00 | 0.00 | 45 | 1020.0 |
| 20260903122529 | 55 | 19 | 0.0 | 0.0 | 0.00 | 0.00 | 0.00 | 45 | 1019.0 |
| 20260903122032 | 55 | 102 | 0.0 | 1.0 | 0.00 | 0.00 | 0.00 | 46 | 1019.0 |
| 20260903121531 | 55 | 66 | 3.0 | 3.0 | 0.00 | 0.00 | 0.00 | 45 | 1020.0 |
| 20260903121031 | 55 | 58 | 4.0 | 5.0 | 0.00 | 0.00 | 0.00 | 46 | 1019.0 |
| 20260903120529 | 55 | 74 | 4.0 | 4.0 | 0.00 | 0.00 | 0.00 | 44 | 1020.0 |
| 20260903120030 | 55 | 74 | 4.0 | 4.0 | 0.00 | 0.00 | 0.00 | 44 | 1019.0 |
| 20260903115529 | 56 | 73 | 2.0 | 3.0 | 0.00 | 0.00 | 0.00 | 43 | 1019.0 |
| 20260903115029 | 56 | 76 | 4.0 | 4.0 | 0.00 | 0.00 | 0.00 | 44 | 1019.0 |
| 20260903114530 | 56 | 360 | 0.0 | 0.0 | 0.00 | 0.00 | 0.00 | 41 | 1019.0 |
| 20260903114031 | 57 | 360 | 0.0 | 0.0 | 0.00 | 0.00 | 0.00 | 42 | 1019.0 |
| 20260903113531 | 57 | 360 | 0.0 | 0.0 | 0.00 | 0.00 | 0.00 | 39 | 1019.0 |
| 20260903113033 | 57 | 360 | 0.0 | 0.0 | 0.00 | 0.00 | 0.00 | 35 | 1019.0 |
| 20260903112529 | 58 | 360 | 0.0 | 0.0 | 0.00 | 0.00 | 0.00 | 38 | 1019.0 |
| 20260903112029 | 58 | 360 | 0.0 | 0.0 | 0.00 | 0.00 | 0.00 | 33 | 1019.0 |
| 20260903111529 | 58 | 360 | 0.0 | 0.0 | 0.00 | 0.00 | 0.00 | 34 | 1019.0 |
| 20260903111030 | 59 | 360 | 0.0 | 0.0 | 0.00 | 0.00 | 0.00 | 32 | 1019.0 |
| 20260903110529 | 60 | 360 | 0.0 | 0.0 | 0.00 | 0.00 | 0.00 | 31 | 1019.0 |
| 20260903110029 | 60 | 18 | 4.0 | 5.0 | 0.00 | 0.00 | 0.00 | 32 | 1019.0 |
| 20260903105529 | 60 | 26 | 5.0 | 7.0 | 0.00 | 0.00 | 0.00 | 29 | 1019.0 |
| 20260903105029 | 60 | 28 | 1.0 | 4.0 | 0.00 | 0.00 | 0.00 | 32 | 1019.0 |
| 20260903104529 | 60 | 360 | 0.0 | 0.0 | 0.00 | 0.00 | 0.00 | 31 | 1019.0 |
| 20260903104029 | 61 | 45 | 1.0 | 3.0 | 0.00 | 0.00 | 0.00 | 28 | 1019.0 |
| 20260903103530 | 61 | 29 | 4.0 | 4.0 | 0.00 | 0.00 | 0.00 | 29 | 1019.0 |
| 20260903103030 | 62 | 29 | 2.0 | 4.0 | 0.00 | 0.00 | 0.00 | 29 | 1019.0 |
| 20260903102530 | 62 | 50 | 1.0 | 2.0 | 0.00 | 0.00 | 0.00 | 27 | 1019.0 |
| 20260903102029 | 62 | 34 | 3.0 | 5.0 | 0.00 | 0.00 | 0.00 | 26 | 1019.0 |
| 20260903101529 | 63 | 43 | 2.0 | 4.0 | 0.00 | 0.00 | 0.00 | 26 | 1019.0 |
| 20260903100545 | 63 | 360 | 0.0 | 0.0 | 0.00 | 0.00 | 0.00 | 27 | 1019.0 |
| 20260903100030 | 63 | 84 | 0.0 | 2.0 | 0.00 | 0.00 | 0.00 | 26 | 1019.0 |
| 20260903095530 | 64 | 360 | 0.0 | 0.0 | 0.00 | 0.00 | 0.00 | 25 | 1019.0 |
| 20260903095030 | 64 | 53 | 1.0 | 3.0 | 0.00 | 0.00 | 0.00 | 25 | 1019.0 |
| 20260903094529 | 64 | 6 | 1.0 | 4.0 | 0.00 | 0.00 | 0.00 | 24 | 1019.0 |
| 20260903094030 | 65 | 17 | 5.0 | 10.0 | 0.00 | 0.00 | 0.00 | 24 | 1019.0 |
| 20260903093529 | 65 | 126 | 3.0 | 4.0 | 0.00 | 0.00 | 0.00 | 23 | 1019.0 |
| 20260903093031 | 65 | 350 | 3.0 | 4.0 | 0.00 | 0.00 | 0.00 | 23 | 1019.0 |
| 20260903092529 | 65 | 360 | 0.0 | 0.0 | 0.00 | 0.00 | 0.00 | 24 | 1019.0 |
| 20260903092029 | 65 | 1 | 4.0 | 6.0 | 0.00 | 0.00 | 0.00 | 24 | 1019.0 |
| 20260903091529 | 65 | 8 | 6.0 | 12.0 | 0.00 | 0.00 | 0.00 | 25 | 1019.0 |
| 20260903091031 | 64 | 356 | 5.0 | 7.0 | 0.00 | 0.00 | 0.00 | 25 | 1019.0 |
| 20260903090530 | 64 | 327 | 1.0 | 5.0 | 0.00 | 0.00 | 0.00 | 25 | 1019.0 |
| 20260903090030 | 64 | 349 | 5.0 | 7.0 | 0.00 | 0.00 | 0.00 | 26 | 1019.0 |
| 20260903085530 | 64 | 9 | 0.0 | 1.0 | 0.00 | 0.00 | 0.00 | 25 | 1019.0 |
| 20260903085029 | 65 | 360 | 0.0 | 0.0 | 0.00 | 0.00 | 0.00 | 27 | 1019.0 |
| 20260903084529 | 65 | 355 | 1.0 | 4.0 | 0.00 | 0.00 | 0.00 | 25 | 1019.0 |
| 20260903084029 | 65 | 10 | 0.0 | 0.0 | 0.00 | 0.00 | 0.00 | 25 | 1019.0 |
| 20260903083529 | 66 | 15 | 4.0 | 5.0 | 0.00 | 0.00 | 0.00 | 24 | 1019.0 |
| 20260903083029 | 66 | 55 | 4.0 | 7.0 | 0.00 | 0.00 | 0.00 | 24 | 1019.0 |
| 20260903082040 | 66 | 341 | 0.0 | 0.0 | 0.00 | 0.00 | 0.00 | 24 | 1019.0 |
| 20260903081529 | 67 | 348 | 3.0 | 4.0 | 0.00 | 0.00 | 0.00 | 24 | 1019.0 |
| 20260903081030 | 67 | 54 | 3.0 | 4.0 | 0.00 | 0.00 | 0.00 | 23 | 1019.0 |
| 20260903080530 | 67 | 345 | 4.0 | 5.0 | 0.00 | 0.00 | 0.00 | 24 | 1019.0 |
| 20260903080029 | 68 | 339 | 5.0 | 6.0 | 0.00 | 0.00 | 0.00 | 26 | 1019.0 |
| 20260903075530 | 68 | 355 | 5.0 | 6.0 | 0.00 | 0.00 | 0.00 | 25 | 1019.0 |
| 20260903075030 | 68 | 2 | 5.0 | 6.0 | 0.00 | 0.00 | 0.00 | 25 | 1019.0 |
| 20260903074529 | 68 | 10 | 8.0 | 9.0 | 0.00 | 0.00 | 0.00 | 26 | 1019.0 |
| 20260903074030 | 68 | 280 | 3.0 | 6.0 | 0.00 | 0.00 | 0.00 | 26 | 1019.0 |
| 20260903073530 | 68 | 351 | 5.0 | 6.0 | 0.00 | 0.00 | 0.00 | 27 | 1019.0 |
| 20260903073030 | 68 | 6 | 5.0 | 6.0 | 0.00 | 0.00 | 0.00 | 30 | 1019.0 |
| 20260903072530 | 69 | 8 | 6.0 | 7.0 | 0.00 | 0.00 | 0.00 | 30 | 1019.0 |
| 20260903072029 | 69 | 263 | 4.0 | 6.0 | 0.00 | 0.00 | 0.00 | 29 | 1019.0 |
| 20260903071530 | 69 | 14 | 5.0 | 6.0 | 0.00 | 0.00 | 0.00 | 30 | 1019.0 |
| 20260903071031 | 70 | 11 | 5.0 | 5.0 | 0.00 | 0.00 | 0.00 | 27 | 1019.0 |
| 20260903070529 | 71 | 11 | 0.0 | 1.0 | 0.00 | 0.00 | 0.00 | 23 | 1019.0 |
| 20260903070031 | 71 | 137 | 4.0 | 6.0 | 0.00 | 0.00 | 0.00 | 19 | 1019.0 |
| 20260903065529 | 71 | 144 | 11.0 | 14.0 | 0.00 | 0.00 | 0.00 | 18 | 1019.0 |
| 20260903065031 | 72 | 145 | 6.0 | 10.0 | 0.00 | 0.00 | 0.00 | 17 | 1018.0 |
| 20260903064529 | 72 | 154 | 6.0 | 8.0 | 0.00 | 0.00 | 0.00 | 16 | 1018.0 |
| 20260903064029 | 72 | 156 | 8.0 | 10.0 | 0.00 | 0.00 | 0.00 | 16 | 1018.0 |
| 20260903063528 | 71 | 105 | 1.0 | 2.0 | 0.00 | 0.00 | 0.00 | 18 | 1018.0 |
| 20260903063029 | 71 | 193 | 4.0 | 6.0 | 0.00 | 0.00 | 0.00 | 19 | 1018.0 |
| 20260903062529 | 72 | 166 | 1.0 | 4.0 | 0.00 | 0.00 | 0.00 | 19 | 1018.0 |
| 20260903062030 | 72 | 95 | 4.0 | 6.0 | 0.00 | 0.00 | 0.00 | 19 | 1018.0 |
| 20260903061530 | 72 | 135 | 5.0 | 9.0 | 0.00 | 0.00 | 0.00 | 19 | 1018.0 |
| 20260903061030 | 72 | 153 | 8.0 | 10.0 | 0.00 | 0.00 | 0.00 | 19 | 1018.0 |
| 20260903060529 | 72 | 165 | 9.0 | 13.0 | 0.00 | 0.00 | 0.00 | 20 | 1018.0 |
| 20260903060029 | 72 | 151 | 6.0 | 13.0 | 0.00 | 0.00 | 0.00 | 20 | 1018.0 |
| 20260903055529 | 72 | 180 | 4.0 | 5.0 | 0.00 | 0.00 | 0.00 | 20 | 1018.0 |
| 20260903055031 | 72 | 141 | 6.0 | 9.0 | 0.00 | 0.00 | 0.00 | 20 | 1018.0 |
| 20260903054529 | 72 | 166 | 4.0 | 8.0 | 0.00 | 0.00 | 0.00 | 20 | 1018.0 |
| 20260903054030 | 72 | 178 | 3.0 | 7.0 | 0.00 | 0.00 | 0.00 | 21 | 1018.0 |
| 20260903053529 | 72 | 319 | 0.0 | 0.0 | 0.00 | 0.00 | 0.00 | 21 | 1018.0 |
| 20260903053030 | 72 | 161 | 5.0 | 8.0 | 0.00 | 0.00 | 0.00 | 21 | 1018.0 |
| 20260903052529 | 72 | 77 | 1.0 | 1.0 | 0.00 | 0.00 | 0.00 | 22 | 1018.0 |
| 20260903052029 | 72 | 147 | 3.0 | 4.0 | 0.00 | 0.00 | 0.00 | 23 | 1018.0 |
| 20260903051529 | 73 | 360 | 0.0 | 0.0 | 0.00 | 0.00 | 0.00 | 23 | 1018.0 |
| 20260903051029 | 73 | 349 | 2.0 | 4.0 | 0.00 | 0.00 | 0.00 | 21 | 1018.0 |
| 20260903050529 | 73 | 360 | 0.0 | 0.0 | 0.00 | 0.00 | 0.00 | 19 | 1018.0 |
| 20260903050031 | 73 | 338 | 1.0 | 4.0 | 0.00 | 0.00 | 0.00 | 19 | 1018.0 |
| 20260903045531 | 73 | 351 | 1.0 | 4.0 | 0.00 | 0.00 | 0.00 | 20 | 1018.0 |
| 20260903045029 | 73 | 122 | 5.0 | 6.0 | 0.00 | 0.00 | 0.00 | 21 | 1018.0 |
| 20260903044531 | 74 | 78 | 2.0 | 4.0 | 0.00 | 0.00 | 0.00 | 22 | 1018.0 |
| 20260903044029 | 74 | 126 | 2.0 | 5.0 | 0.00 | 0.00 | 0.00 | 21 | 1018.0 |
| 20260903043530 | 74 | 135 | 3.0 | 7.0 | 0.00 | 0.00 | 0.00 | 20 | 1018.0 |
| 20260903043029 | 74 | 167 | 5.0 | 8.0 | 0.00 | 0.00 | 0.00 | 20 | 1018.0 |
| 20260903042529 | 74 | 128 | 6.0 | 9.0 | 0.00 | 0.00 | 0.00 | 21 | 1018.0 |
| 20260903042029 | 74 | 99 | 4.0 | 7.0 | 0.00 | 0.00 | 0.00 | 23 | 1018.0 |
| 20260903041530 | 74 | 156 | 6.0 | 10.0 | 0.00 | 0.00 | 0.00 | 20 | 1018.0 |
| 20260903041030 | 74 | 144 | 8.0 | 12.0 | 0.00 | 0.00 | 0.00 | 18 | 1018.0 |
| 20260903040530 | 74 | 162 | 9.0 | 13.0 | 0.00 | 0.00 | 0.00 | 19 | 1018.0 |
| 20260903040030 | 74 | 169 | 7.0 | 10.0 | 0.00 | 0.00 | 0.00 | 20 | 1018.0 |
| 20260903035529 | 74 | 181 | 5.0 | 7.0 | 0.00 | 0.00 | 0.00 | 21 | 1018.0 |
| 20260903035029 | 74 | 124 | 5.0 | 9.0 | 0.00 | 0.00 | 0.00 | 22 | 1018.0 |
| 20260903034529 | 74 | 159 | 4.0 | 5.0 | 0.00 | 0.00 | 0.00 | 22 | 1018.0 |
| 20260903034030 | 74 | 105 | 4.0 | 6.0 | 0.00 | 0.00 | 0.00 | 21 | 1018.0 |
| 20260903033530 | 74 | 126 | 4.0 | 5.0 | 0.00 | 0.00 | 0.00 | 21 | 1018.0 |
| 20260903033029 | 74 | 126 | 4.0 | 8.0 | 0.00 | 0.00 | 0.00 | 21 | 1018.0 |